Wind_Speed
17 16 15 14 13 12 12 12 10 8 8 7 6 5 5 4 4 4 4 3 3 3 2 2 3 3 4 5 6 7 8 8 9 9 9 9 9 9 10 10 10 11 11 11 12 12 13 13 13
19 18 17 15 14 13 13 13 11 10 9 8 7 7 7 6 6 5 5 5 5 5 4 4 5 5 6 7 8 9 9 9 10 10 10 10 10 11 11 11 12 12 13 13 13 14 14 14 14
19 19 18 16 15 14 14 14 12 11 9 9 8 8 8 8 8 7 7 7 7 7 7 7 7 7 8 9 9 10 10 10 11 11 11 11 12 12 12 13 13 14 14 15 15 15 15 15 14
19 19 18 17 16 16 15 13 12 11 10 10 10 10 9 9 9 9 9 9 9 9 9 9 9 9 9 10 11 11 11 12 12 12 12 13 13 13 14 14 14 15 15 15 16 16 15 15 15
19 19 18 17 16 17 16 15 13 12 11 10 11 11 11 10 10 11 11 11 11 11 11 11 11 11 11 12 13 13 13 14 14 14 14 15 15 15 15 15 16 16 17 17 17 17 17 16 16
19 19 18 17 17 17 16 16 15 13 12 12 11 11 11 11 11 12 11 11 11 11 11 11 12 12 13 14 15 15 15 16 16 16 16 16 16 16 17 17 17 18 18 17 18 18 18 18 17
19 19 18 17 18 18 17 17 16 15 14 13 13 12 12 12 12 12 12 12 12 13 14 13 14 14 14 15 16 17 17 16 16 17 17 17 18 18 18 18 19 19 19 19 19 19 20 19 19
18 19 18 17 18 18 18 17 17 16 15 14 14 14 13 13 13 13 13 13 13 14 14 15 15 16 16 17 17 17 17 17 17 17 18 18 19 19 19 20 20 20 21 21 22 22 21 21 21
17 17 17 17 18 19 19 18 17 16 15 14 14 14 14 13 14 14 14 14 14 14 16 17 17 17 17 18 19 19 19 19 19 19 19 19 20 20 21 22 22 23 23 23 23 23 23 22 22
16 15 17 18 18 19 19 18 17 16 15 14 14 14 14 14 15 14 15 16 16 16 16 17 18 18 18 19 20 20 20 20 21 20 21 21 21 21 22 23 23 24 24 24 24 24 24 23 23
15 15 16 17 17 18 18 18 17 16 16 15 15 15 15 16 16 15 15 16 17 17 17 18 18 19 19 20 21 22 22 22 22 23 23 23 23 23 23 24 24 25 25 25 25 26 26 25 25
14 14 15 16 17 17 17 17 16 16 16 16 16 16 16 16 16 16 16 16 16 17 18 18 19 20 21 21 23 23 24 24 24 24 24 24 25 25 25 25 25 26 26 26 27 27 27 27 27
12 13 13 14 15 16 16 16 15 15 15 16 16 17 17 14 15 16 16 16 17 18 19 20 20 21 22 23 24 25 25 25 25 26 26 25 25 26 26 26 26 27 27 27 28 28 28 29 29
11 12 12 13 13 14 14 14 14 14 15 16 16 16 16 16 15 16 17 18 18 19 20 21 21 22 24 24 24 25 25 25 26 27 26 26 27 27 27 27 27 28 28 29 29 29 29 29 29
10 10 11 11 12 12 12 12 13 14 14 15 15 15 16 16 17 18 18 19 19 20 21 22 22 23 24 25 25 25 25 26 27 26 26 26 27 28 29 28 28 29 29 29 29 29 28 28 29
9 10 11 12 12 11 11 12 14 14 15 15 16 16 17 17 17 18 19 20 20 21 21 22 22 24 25 26 26 26 26 25 26 25 26 26 27 27 29 29 29 29 30 30 29 29 29 29 29
8 8 10 12 11 11 11 12 14 14 14 15 16 17 18 18 18 19 20 21 21 22 22 22 23 24 25 26 25 26 26 26 26 26 26 27 27 28 29 30 30 29 30 30 30 30 31 30 30
7 7 8 9 11 10 11 12 12 14 14 14 16 17 18 19 19 20 21 21 22 23 23 24 25 26 26 25 26 26 26 26 26 26 27 28 29 29 29 29 29 29 29 30 30 31 30 30 30
5 6 7 9 10 11 11 12 13 14 15 15 16 17 18 20 20 21 22 22 22 22 23 24 26 26 26 27 28 28 26 26 26 28 28 28 28 29 29 29 29 30 30 30 30 30 30 30 30
5 5 6 8 9 10 10 11 12 13 14 15 16 17 18 20 21 22 23 23 23 23 24 24 26 26 26 26 27 27 25 26 28 29 28 28 29 29 29 29 29 29 30 30 30 30 31 31 30
6 7 7 8 9 9 9 10 11 14 15 16 16 18 19 21 21 22 22 23 23 24 25 25 26 25 25 25 26 26 26 27 27 29 28 29 28 28 29 28 29 30 30 30 30 31 31 30 30
8 8 9 8 8 9 10 11 13 15 16 17 17 17 18 20 20 21 21 22 22 23 24 25 25 25 24 25 26 27 27 27 28 28 29 29 29 29 28 28 29 29 29 29 29 29 30 30 29
9 9 9 10 10 11 12 12 14 15 16 16 16 17 18 19 20 20 20 20 21 22 24 24 24 23 24 25 26 27 27 27 28 29 29 29 28 28 28 28 28 28 28 28 28 28 28 28 28
10 10 10 11 11 12 12 12 13 14 15 15 15 16 17 18 19 19 19 20 20 21 22 23 23 23 24 25 26 26 26 27 28 29 29 28 27 26 26 26 27 27 27 27 27 27 27 27 26
9 9 10 9 10 11 13 13 14 14 15 15 15 16 16 17 18 19 19 19 20 21 21 22 22 22 23 24 24 25 26 27 27 27 28 27 27 26 25 25 25 25 25 25 25 25 24 24 24
11 10 10 11 12 12 13 14 15 15 15 16 16 16 16 16 17 18 19 19 19 20 20 20 20 22 23 23 23 23 25 25 26 26 26 26 25 24 23 23 23 23 24 24 24 24 23 23 22
12 12 13 13 14 14 14 15 16 16 15 17 17 17 17 17 17 18 18 18 18 19 20 20 20 22 22 22 22 23 23 24 24 24 24 23 23 23 22 22 22 22 23 23 23 23 22 21 20
14 14 14 13 14 14 15 15 17 18 17 18 18 18 17 17 18 18 18 18 17 18 19 18 20 20 21 21 21 22 22 22 22 22 22 22 22 22 22 22 22 21 22 22 22 22 21 20 20
16 15 15 15 15 15 17 17 18 19 19 19 18 18 17 17 18 18 19 19 18 18 18 19 19 20 20 20 21 21 21 20 20 20 20 20 21 21 22 22 21 21 21 21 21 20 20 19 19
18 17 17 17 17 17 18 19 19 20 20 19 19 19 18 19 19 20 20 20 19 19 19 19 19 20 19 19 19 19 19 19 19 19 19 19 20 21 21 20 20 20 20 19 19 19 19 19 19
Wind_Direction
222 219 218 218 218 218 219 220 217 217 216 219 226 228 234 253 268 262 254 247 249 253 257 277 277 281 289 291 292 291 293 296 299 301 303 305 307 309 309 308 309 307 306 305 303 301 299 297 293
224 220 219 218 216 221 227 225 222 223 228 231 232 238 245 258 259 261 256 254 261 266 277 287 290 291 294 295 293 295 295 296 298 300 302 305 305 306 305 304 303 302 301 301 300 299 297 294 292
224 222 221 220 218 218 227 230 227 231 236 239 243 248 255 264 264 262 257 259 261 266 274 281 288 290 294 294 294 295 296 297 298 298 298 300 300 300 300 300 299 298 297 297 297 295 295 293 290
223 222 223 224 224 224 226 231 233 238 242 244 250 256 257 264 268 265 260 262 263 260 267 277 283 286 291 293 291 292 294 295 296 296 296 297 297 297 297 297 297 295 294 294 293 293 292 292 289
223 222 223 226 228 229 231 233 235 241 245 249 254 257 260 267 272 270 266 266 275 270 268 274 281 283 287 289 288 288 289 292 293 294 294 295 295 295 294 294 294 294 293 292 290 289 289 288 287
221 222 223 226 231 232 235 238 240 243 247 250 254 258 265 270 273 275 273 274 279 276 273 275 280 282 286 287 286 286 287 289 290 292 293 294 294 294 293 293 294 294 293 292 290 289 289 288 287
218 220 222 224 230 234 235 238 241 244 247 248 252 259 266 268 271 272 271 272 276 279 278 276 280 282 283 283 284 285 285 287 288 290 291 293 293 293 293 292 292 292 292 291 291 290 288 287 286
219 221 223 226 230 234 236 238 240 244 249 250 253 258 265 266 267 269 275 273 275 278 280 278 277 279 281 282 284 284 285 286 286 287 288 290 291 292 291 291 291 291 292 291 290 290 288 287 286
220 223 226 227 231 235 238 241 243 246 252 252 255 260 264 265 269 272 274 278 278 282 281 277 275 279 281 282 282 282 283 284 285 285 286 288 289 289 291 291 291 291 290 290 290 291 289 287 286
219 222 228 230 231 235 239 241 245 249 253 254 256 260 264 265 269 276 279 282 282 281 280 281 279 279 280 282 282 281 280 281 282 283 284 286 289 290 291 290 290 290 290 289 289 289 289 286 285
218 221 226 229 231 234 238 243 248 253 253 253 255 260 262 265 271 277 282 281 282 282 281 281 281 280 279 281 282 282 281 280 280 281 283 286 288 289 291 292 291 291 290 289 289 288 287 285 284
216 221 225 227 231 235 239 243 247 252 254 256 259 262 266 267 273 278 280 279 281 283 285 285 283 282 280 280 282 282 281 280 280 280 282 285 287 288 290 291 291 291 289 289 288 288 286 285 283
217 220 222 228 232 235 240 244 247 250 253 259 262 264 267 273 280 279 277 279 282 285 286 287 285 283 281 282 284 282 281 280 281 283 282 284 286 287 289 290 291 291 290 289 288 288 287 285 283
215 218 224 230 233 235 239 243 247 249 253 256 259 263 268 273 277 274 275 280 283 285 286 287 287 288 287 285 285 285 283 284 285 282 282 284 286 288 289 290 290 290 290 290 288 286 287 285 283
210 214 223 231 234 237 240 244 249 251 255 261 266 268 271 276 277 278 282 282 284 285 286 287 288 288 287 286 286 285 285 285 285 281 282 284 288 290 290 290 290 289 289 290 289 287 286 285 283
208 216 226 232 235 237 241 248 251 254 256 264 271 273 275 279 280 281 283 284 285 286 286 286 287 288 288 289 287 284 285 285 285 284 283 286 291 292 291 291 289 289 289 289 288 287 286 286 285
214 223 230 237 240 242 247 252 255 261 261 265 269 272 275 278 280 283 284 282 283 285 286 288 288 288 288 288 286 286 287 285 284 285 286 288 291 292 292 291 290 289 289 289 287 287 285 285 286
229 234 241 247 249 249 255 258 263 265 270 268 268 271 275 278 281 283 284 284 286 286 285 286 286 288 289 288 289 290 291 288 287 287 289 290 290 290 292 292 291 290 290 289 288 287 286 285 286
237 238 245 245 252 256 260 263 267 269 270 271 272 275 278 279 281 283 286 286 287 287 286 286 287 288 289 289 291 292 291 290 289 290 290 289 289 289 290 292 291 290 290 291 290 289 288 287 286
249 246 249 252 257 262 266 270 269 273 274 280 281 280 280 281 281 283 285 286 286 286 287 288 288 289 290 290 293 294 293 292 291 291 291 290 289 290 292 292 291 291 291 292 291 290 288 287 286
264 255 251 256 262 270 279 282 279 276 281 283 285 283 284 284 283 284 283 284 285 285 286 287 289 289 289 289 291 292 294 293 292 292 295 294 291 291 292 292 293 292 291 292 292 290 288 287 285
269 266 263 263 269 271 273 280 283 279 284 285 285 285 285 285 285 285 285 286 285 285 287 289 290 291 291 290 291 295 297 295 295 294 297 296 292 292 293 293 294 294 294 293 293 293 291 286 284
278 275 275 277 279 277 279 278 284 283 284 284 283 284 284 285 285 286 286 287 286 286 288 291 291 292 293 293 293 295 296 296 298 297 297 298 295 294 294 294 293 293 293 293 293 293 290 287 285
281 282 283 286 286 282 280 278 284 286 286 286 284 284 284 286 285 287 287 286 285 286 289 292 292 293 294 294 294 294 295 296 299 300 300 302 298 296 295 294 294 296 297 297 296 295 291 287 285
292 289 291 290 286 283 282 281 282 290 290 290 287 286 286 286 286 286 287 287 285 287 290 293 293 293 294 294 295 295 296 297 300 302 302 302 300 296 295 296 297 298 299 299 298 298 295 290 287
288 288 284 282 283 283 284 285 287 293 293 293 292 292 289 288 287 287 289 289 289 289 292 293 294 295 294 295 297 298 300 301 303 303 303 302 301 298 297 298 298 299 299 300 301 301 297 293 290
289 283 283 284 289 289 288 287 288 293 293 292 291 290 289 287 287 290 292 292 294 293 294 295 295 297 297 296 297 301 302 304 305 306 307 305 303 301 300 300 299 301 302 301 302 301 299 296 291
292 290 284 283 288 287 288 290 291 294 294 291 288 288 287 287 289 290 289 293 293 296 297 297 298 298 298 298 300 302 304 305 305 307 310 310 308 306 304 302 302 302 303 302 301 300 298 297 295
293 291 290 289 284 286 289 288 289 291 295 294 292 293 292 293 293 294 293 292 292 295 296 297 299 300 300 301 301 303 305 305 306 308 312 313 312 310 307 307 305 303 303 304 303 303 302 301 300
292 292 291 288 289 288 289 290 291 290 292 294 295 294 294 294 293 293 293 294 294 294 293 296 297 298 298 300 303 306 307 306 309 312 314 315 314 315 313 312 312 309 308 308 308 306 306 305 303
Height
5889 5892 5894 5896 5899 5901 5902 5902 5903 5903 5904 5904 5904 5904 5904 5905 5906 5907 5905 5903 5903 5902 5902 5901 5901 5901 5901 5900 5900 5900 5899 5898 5897 5896 5895 5894 5893 5892 5891 5891 5890 5889 5888 5887 5887 5886 5885 5884 5883
5886 5889 5891 5894 5897 5899 5900 5900 5901 5902 5902 5903 5903 5903 5903 5903 5903 5903 5902 5902 5902 5901 5901 5900 5900 5900 5899 5899 5898 5898 5897 5896 5895 5894 5893 5892 5891 5890 5889 5888 5887 5886 5886 5885 5884 5883 5882 5881 5880
5883 5885 5889 5891 5894 5897 5898 5898 5899 5899 5900 5901 5901 5901 5902 5901 5901 5901 5900 5900 5900 5899 5899 5899 5898 5898 5898 5897 5896 5896 5895 5894 5893 5892 5891 5890 5889 5888 5887 5886 5885 5884 5883 5882 5881 5880 5879 5878 5878
5880 5883 5887 5890 5892 5893 5894 5896 5896 5897 5898 5899 5899 5900 5900 5899 5899 5899 5898 5898 5897 5897 5897 5897 5896 5896 5895 5895 5894 5893 5892 5891 5890 5889 5888 5887 5886 5885 5884 5883 5882 5881 5880 5879 5878 5877 5876 5875 5874
5877 5881 5884 5887 5889 5890 5892 5893 5893 5895 5896 5897 5897 5897 5897 5897 5897 5896 5896 5896 5895 5895 5894 5894 5894 5894 5893 5892 5891 5891 5890 5889 5888 5887 5885 5884 5883 5882 5881 5880 5879 5878 5877 5876 5875 5874 5873 5872 5871
5874 5878 5882 5884 5886 5888 5889 5890 5891 5892 5893 5894 5895 5895 5895 5895 5894 5894 5894 5894 5893 5893 5892 5892 5891 5891 5890 5889 5889 5888 5887 5886 5885 5884 5883 5881 5880 5879 5878 5877 5875 5874 5873 5872 5871 5870 5869 5868 5867
5872 5875 5878 5881 5883 5885 5886 5887 5888 5890 5890 5891 5892 5892 5892 5892 5892 5892 5891 5891 5891 5890 5890 5889 5888 5888 5887 5886 5886 5885 5884 5883 5881 5880 5879 5878 5876 5875 5874 5873 5871 5870 5869 5868 5867 5866 5865 5864 5863
5869 5873 5875 5878 5880 5882 5883 5884 5885 5887 5888 5889 5889 5890 5890 5890 5889 5889 5889 5889 5888 5888 5887 5886 5885 5884 5884 5883 5883 5882 5881 5879 5878 5877 5875 5874 5872 5871 5870 5868 5867 5866 5865 5864 5862 5861 5860 5859 5858
5866 5871 5873 5875 5877 5878 5879 5881 5882 5884 5885 5886 5886 5887 5887 5887 5887 5887 5886 5886 5885 5885 5884 5883 5882 5881 5881 5880 5879 5878 5877 5875 5874 5873 5871 5870 5868 5866 5865 5864 5863 5862 5860 5859 5858 5857 5855 5854 5853
5863 5868 5870 5871 5873 5875 5876 5878 5880 5881 5882 5883 5884 5884 5885 5885 5884 5884 5884 5883 5882 5882 5881 5880 5879 5879 5878 5877 5876 5874 5873 5871 5870 5868 5867 5865 5864 5862 5860 5859 5858 5857 5855 5854 5853 5851 5850 5849 5848
5861 5864 5866 5868 5870 5871 5873 5875 5877 5878 5880 5880 5881 5881 5882 5882 5882 5882 5881 5880 5879 5879 5878 5877 5876 5875 5874 5873 5871 5870 5868 5867 5865 5864 5862 5861 5859 5857 5856 5854 5853 5852 5850 5849 5848 5846 5845 5844 5842
5860 5862 5863 5865 5867 5869 5871 5872 5874 5875 5877 5877 5878 5878 5878 5878 5879 5878 5878 5877 5876 5875 5874 5873 5872 5871 5869 5868 5867 5865 5864 5862 5861 5859 5858 5856 5854 5853 5851 5850 5848 5846 5845 5843 5842 5840 5839 5838 5836
5858 5860 5862 5863 5865 5866 5868 5870 5871 5872 5873 5874 5875 5875 5875 5875 5875 5875 5874 5874 5873 5872 5870 5869 5867 5866 5865 5864 5862 5861 5859 5858 5856 5855 5853 5851 5849 5848 5846 5845 5843 5841 5839 5837 5836 5834 5833 5831 5830
5857 5859 5860 5861 5863 5865 5866 5868 5869 5870 5870 5871 5871 5871 5872 5872 5872 5871 5871 5870 5869 5868 5866 5865 5863 5861 5860 5859 5857 5856 5854 5853 5851 5850 5848 5846 5845 5843 5841 5839 5837 5835 5833 5831 5829 5828 5826 5824 5823
5856 5858 5859 5860 5861 5863 5865 5866 5866 5867 5868 5868 5868 5868 5868 5869 5868 5868 5867 5866 5865 5864 5862 5861 5859 5857 5856 5854 5852 5851 5849 5848 5846 5844 5843 5841 5839 5837 5835 5833 5831 5829 5827 5825 5823 5821 5819 5817 5816
5856 5858 5859 5860 5860 5861 5864 5865 5865 5864 5865 5865 5865 5865 5865 5865 5865 5864 5863 5862 5861 5860 5858 5856 5855 5853 5851 5849 5847 5845 5844 5842 5840 5839 5837 5835 5833 5831 5829 5827 5825 5823 5820 5818 5816 5814 5812 5810 5808
5856 5858 5858 5859 5858 5859 5861 5862 5862 5862 5862 5863 5863 5862 5862 5862 5861 5860 5859 5858 5857 5856 5854 5852 5850 5849 5847 5844 5842 5840 5838 5836 5834 5833 5831 5829 5827 5825 5823 5821 5818 5816 5814 5811 5809 5807 5805 5803 5801
5856 5857 5857 5858 5858 5858 5859 5859 5860 5859 5859 5859 5859 5859 5858 5858 5858 5856 5855 5854 5853 5851 5850 5848 5846 5844 5841 5839 5837 5835 5833 5831 5828 5827 5825 5823 5821 5819 5816 5814 5812 5809 5807 5804 5802 5800 5797 5795 5793
5854 5855 5856 5856 5855 5856 5857 5857 5857 5856 5856 5856 5855 5855 5854 5854 5853 5852 5851 5850 5848 5847 5845 5843 5841 5839 5836 5834 5831 5829 5827 5825 5823 5821 5818 5816 5814 5812 5810 5808 5805 5802 5800 5797 5795 5792 5790 5788 5785
5853 5854 5854 5854 5853 5854 5854 5854 5854 5853 5853 5852 5852 5851 5850 5849 5848 5847 5846 5845 5843 5842 5840 5838 5836 5833 5831 5828 5826 5824 5821 5819 5817 5814 5812 5810 5807 5805 5803 5800 5798 5795 5793 5790 5788 5785 5782 5780 5777
5851 5852 5852 5852 5852 5852 5852 5852 5852 5851 5849 5849 5848 5847 5846 5844 5843 5842 5841 5840 5838 5837 5835 5833 5830 5828 5825 5823 5821 5818 5816 5814 5811 5808 5806 5803 5801 5798 5796 5793 5791 5788 5786 5783 5780 5777 5774 5772 5770
5849 5850 5849 5849 5850 5850 5850 5851 5849 5847 5846 5845 5844 5842 5841 5839 5838 5837 5836 5835 5833 5831 5829 5827 5825 5822 5820 5818 5815 5813 5810 5808 5805 5802 5799 5797 5794 5791 5789 5786 5784 5781 5778 5775 5772 5769 5766 5763 5761
5847 5847 5847 5847 5847 5847 5847 5847 5847 5844 5842 5841 5840 5838 5837 5835 5833 5832 5831 5830 5828 5826 5824 5822 5820 5818 5815 5813 5810 5808 5805 5802 5799 5796 5793 5790 5787 5785 5782 5780 5777 5774 5771 5768 5765 5761 5758 5755 5754
5844 5845 5844 5844 5845 5845 5845 5844 5844 5840 5838 5837 5835 5834 5832 5830 5829 5827 5826 5825 5823 5821 5819 5817 5815 5813 5810 5808 5806 5803 5800 5797 5793 5790 5787 5784 5781 5778 5775 5773 5770 5767 5764 5761 5757 5754 5750 5748 5746
5842 5843 5843 5844 5844 5844 5841 5840 5839 5836 5834 5833 5831 5829 5828 5826 5825 5823 5822 5820 5819 5817 5815 5813 5810 5808 5806 5803 5800 5797 5795 5791 5788 5785 5782 5778 5775 5772 5769 5766 5763 5760 5757 5754 5751 5747 5744 5741 5739
5839 5840 5841 5841 5841 5840 5838 5836 5835 5832 5830 5828 5827 5825 5824 5822 5821 5819 5817 5816 5814 5812 5810 5808 5806 5803 5801 5798 5795 5792 5789 5786 5783 5779 5776 5772 5769 5766 5763 5760 5757 5754 5751 5748 5744 5741 5738 5735 5733
5836 5836 5836 5836 5835 5835 5834 5832 5830 5828 5826 5824 5823 5821 5820 5818 5817 5815 5813 5811 5810 5808 5805 5803 5801 5799 5796 5793 5790 5787 5784 5781 5778 5774 5771 5767 5764 5761 5758 5754 5751 5748 5745 5742 5739 5735 5733 5730 5728
5832 5831 5831 5831 5830 5830 5830 5828 5826 5823 5821 5820 5818 5817 5815 5814 5812 5810 5808 5807 5805 5803 5801 5799 5796 5794 5791 5788 5786 5783 5779 5776 5773 5770 5767 5763 5759 5756 5753 5749 5746 5743 5740 5736 5733 5730 5727 5725 5722
5828 5827 5825 5825 5825 5825 5824 5826 5821 5818 5816 5815 5813 5812 5810 5809 5807 5805 5803 5802 5800 5798 5796 5794 5792 5789 5787 5784 5781 5778 5775 5772 5769 5766 5762 5759 5755 5751 5747 5744 5740 5737 5734 5731 5728 5725 5722 5720 5718
5822 5822 5821 5820 5820 5819 5818 5820 5814 5813 5811 5809 5808 5807 5805 5804 5802 5800 5798 5797 5795 5793 5791 5790 5787 5785 5782 5780 5777 5774 5771 5768 5765 5761 5758 5754 5751 5747 5743 5739 5735 5732 5729 5726 5723 5721 5718 5715 5713